EK001 DGAA-DGLE

Flight info

Callsign EK001
Flight time N/A
Altitude 20000
Route LITEX1D LITEX DCT IRVIK
Aircraft A388/J-SADE2E3FGHIJ3J4J5M1RWXY/LB1D1

Departure

Time 2026-04-26 17:51
Airport Kotoka International Airport (DGAA)

Arrival

Time N/A
Airport Yakubu Tali International Airport (DGLE)
Time Latitude Longitude Altitude Speed Heading
2026-04-26 17:26 5.60485 -0.17081 227 ft 0 kts 292°
2026-04-26 17:38 5.60485 -0.17080 227 ft 1 kts 292°
2026-04-26 17:38 5.60482 -0.17073 228 ft 1 kts 292°
2026-04-26 17:38 5.60481 -0.17069 228 ft 1 kts 292°
2026-04-26 17:39 5.60475 -0.17058 228 ft 1 kts 298°
2026-04-26 17:39 5.60471 -0.17052 233 ft 1 kts 305°
2026-04-26 17:39 5.60463 -0.17044 229 ft 2 kts 311°
2026-04-26 17:39 5.60457 -0.17038 234 ft 2 kts 316°
2026-04-26 17:40 5.60447 -0.17030 228 ft 2 kts 322°
2026-04-26 17:40 5.60440 -0.17025 231 ft 2 kts 327°
2026-04-26 17:40 5.60421 -0.17016 226 ft 2 kts 338°
2026-04-26 17:40 5.60413 -0.17013 228 ft 2 kts 341°
2026-04-26 17:41 5.60400 -0.17011 225 ft 2 kts 348°
2026-04-26 17:41 5.60387 -0.17009 224 ft 2 kts 354°
2026-04-26 17:41 5.60375 -0.17009 224 ft 2 kts
2026-04-26 17:41 5.60362 -0.17011 223 ft 2 kts
2026-04-26 17:42 5.60349 -0.17014 222 ft 2 kts 15°
2026-04-26 17:42 5.60339 -0.17018 221 ft 0 kts 20°
2026-04-26 17:45 5.60355 -0.17012 222 ft 9 kts 23°
2026-04-26 17:45 5.60442 -0.16969 223 ft 14 kts 26°
2026-04-26 17:45 5.60529 -0.16927 225 ft 10 kts 23°
2026-04-26 17:46 5.60599 -0.16899 227 ft 6 kts 22°
2026-04-26 17:46 5.60644 -0.16881 230 ft 11 kts 22°
2026-04-26 17:46 5.60722 -0.16848 232 ft 15 kts 22°
2026-04-26 17:46 5.60847 -0.16796 227 ft 21 kts 22°
2026-04-26 17:47 5.61021 -0.16723 227 ft 34 kts 22°
2026-04-26 17:47 5.61145 -0.16672 228 ft 21 kts 22°
2026-04-26 17:47 5.61305 -0.16607 226 ft 24 kts 22°
2026-04-26 17:47 5.61349 -0.16588 230 ft 4 kts 22°
2026-04-26 17:48 5.61431 -0.16555 224 ft 22 kts 22°
2026-04-26 17:48 5.61530 -0.16514 222 ft 17 kts 22°
2026-04-26 17:48 5.61596 -0.16479 221 ft 8 kts 44°
2026-04-26 17:48 5.61610 -0.16463 218 ft 3 kts 64°
2026-04-26 17:49 5.61621 -0.16398 220 ft 4 kts 110°
2026-04-26 17:49 5.61618 -0.16392 219 ft 5 kts 116°
2026-04-26 17:49 5.61574 -0.16343 226 ft 6 kts 149°
2026-04-26 17:49 5.61491 -0.16326 221 ft 27 kts 191°
2026-04-26 17:50 5.61333 -0.16386 227 ft 32 kts 197°
2026-04-26 17:50 5.60980 -0.16534 227 ft 90 kts 202°
2026-04-26 17:50 5.60144 -0.16872 219 ft 171 kts 201°
2026-04-26 17:50 5.59056 -0.17334 786 ft 180 kts 203°
2026-04-26 17:51 5.57905 -0.17879 1623 ft 190 kts 206°
2026-04-26 17:51 5.56679 -0.18484 2532 ft 203 kts 204°
2026-04-26 17:51 5.55312 -0.19041 3480 ft 220 kts 195°
2026-04-26 17:51 5.53801 -0.19051 4569 ft 216 kts 160°
2026-04-26 17:52 5.52652 -0.18285 5794 ft 198 kts 126°